Location: Stamford Observatory
(41.1241°N, 73.5498°W)
Time: 20:08:39
(UTC-04:00)

IRS-P3 - Visible Passes

Search period start: 21 September 2014 00:00
Search period end: 01 October 2014 00:00
Orbit: 815 x 821 km, 98.6° (Epoch: 21 September)

Date Brightness Start Highest point End Pass type
(mag) Time Alt. Az. Time Alt. Az. Time Alt. Az.
21 Sep 6.8 02:07:53 10° NNE 02:08:36 14° NNE 02:08:36 14° NNE visible
21 Sep 6.2 03:48:26 10° N 03:49:54 17° NNW 03:49:54 17° NNW visible
22 Sep 6.2 03:26:34 10° N 03:28:06 19° N 03:28:06 19° N visible
23 Sep 6.3 03:04:55 10° N 03:06:18 18° N 03:06:18 18° N visible
24 Sep 6.6 02:43:24 10° NNE 02:44:30 17° NNE 02:44:30 17° NNE visible
24 Sep 6.5 04:25:44 10° NNW 04:25:48 10° NNW 04:25:48 10° NNW visible
25 Sep 6.9 02:22:03 10° NNE 02:22:41 14° NNE 02:22:41 14° NNE visible
25 Sep 6.4 04:03:10 10° NNW 04:03:59 13° NNW 04:03:59 13° NNW visible
26 Sep 7.1 02:00:53 10° NNE 02:00:53 10° NNE 02:00:53 10° NNE visible
26 Sep 6.4 03:41:09 10° N 03:42:11 15° NNW 03:42:11 15° NNW visible
27 Sep 6.5 03:19:22 10° N 03:20:23 16° N 03:20:23 16° N visible
28 Sep 6.6 02:57:45 10° N 02:58:34 15° N 02:58:34 15° N visible
29 Sep 6.9 02:36:17 10° NNE 02:36:46 13° NNE 02:36:46 13° NNE visible
30 Sep 6.5 03:55:49 10° NNW 03:56:15 12° NNW 03:56:15 12° NNW visible
